When you browse on this site, cookies collect data to enhance your experience and personalize the content and advertising you see.
Visit our Privacy Policy to learn more. By continuing to use the site, you agree to this use of cookies and data.
  • In Portugal
  • List of Countries
  • For 7 days
  • Water Temperature
  • Weather Map
  • Weather Widgets
  • user-avatar
    Login

    Hourly Weather Birikchul

    Today, 5 June, Friday

    Time Temperature Precipitation Wind Pressure Humidity
    00:00 +7°C° 0 mm 1 mps 702 mmHg 87%
    01:00 +8°C° 0.2 mm 1 mps 702 mmHg 89%
    02:00 +8°C° 0.2 mm 1 mps 701 mmHg 90%
    03:00 +8°C° 0.2 mm 1 mps 701 mmHg 92%
    04:00 +8°C° 0.4 mm 1 mps 701 mmHg 93%
    05:00 +7°C° 0.4 mm 0 mps 701 mmHg 94%
    06:00 +8°C° 0 mm 0 mps 701 mmHg 95%
    07:00 +8°C° 0.4 mm 0 mps 700 mmHg 93%
    08:00 +10°C° 0.4 mm 1 mps 700 mmHg 92%
    09:00 +11°C° 0.4 mm 1 mps 700 mmHg 90%
    10:00 +12°C° 0.6 mm 1 mps 700 mmHg 87%
    11:00 +12°C° 0.6 mm 1 mps 700 mmHg 84%
    12:00 +14°C° 0 mm 1 mps 700 mmHg 81%
    13:00 +13°C° 0.9 mm 1 mps 700 mmHg 82%
    14:00 +13°C° 0.9 mm 1 mps 699 mmHg 83%
    15:00 +12°C° 0.9 mm 1 mps 699 mmHg 84%
    16:00 +12°C° 0.8 mm 1 mps 700 mmHg 85%
    17:00 +11°C° 0.8 mm 1 mps 700 mmHg 87%
    18:00 +11°C° 0 mm 1 mps 702 mmHg 86%
    19:00 +10°C° 0.3 mm 1 mps 702 mmHg 88%
    20:00 +9°C° 0.3 mm 1 mps 702 mmHg 90%
    21:00 +8°C° 0.3 mm 1 mps 702 mmHg 91%
    22:00 +7°C° 0.1 mm 1 mps 702 mmHg 92%
    23:00 +6°C° 0.1 mm 1 mps 703 mmHg 93%

    Tomorrow, 6 June, Saturday

    Time Temperature Precipitation Wind Pressure Humidity
    00:00 +5°C° 0.1 mm 2 mps 703 mmHg 95%
    01:00 +5°C° 0 mm 2 mps 703 mmHg 95%
    02:00 +5°C° 0 mm 2 mps 703 mmHg 95%
    03:00 +4°C° 0 mm 3 mps 703 mmHg 96%
    04:00 +4°C° 0.1 mm 3 mps 703 mmHg 95%
    05:00 +5°C° 0.1 mm 3 mps 704 mmHg 93%
    06:00 +5°C° 0.1 mm 3 mps 705 mmHg 92%
    07:00 +6°C° 0.1 mm 4 mps 705 mmHg 87%
    08:00 +8°C° 0.1 mm 5 mps 706 mmHg 81%
    09:00 +9°C° 0.1 mm 5 mps 707 mmHg 76%
    10:00 +9°C° 0.2 mm 5 mps 707 mmHg 76%
    11:00 +8°C° 0.2 mm 5 mps 707 mmHg 76%
    12:00 +8°C° 0.2 mm 5 mps 707 mmHg 76%
    13:00 +8°C° 0.2 mm 5 mps 707 mmHg 78%
    14:00 +8°C° 0.2 mm 5 mps 707 mmHg 81%
    15:00 +8°C° 0.2 mm 5 mps 707 mmHg 83%
    16:00 +8°C° 0.5 mm 4 mps 707 mmHg 86%
    17:00 +8°C° 0.5 mm 3 mps 708 mmHg 88%
    18:00 +8°C° 0.5 mm 3 mps 708 mmHg 91%
    19:00 +8°C° 0.3 mm 2 mps 708 mmHg 92%
    20:00 +7°C° 0.3 mm 2 mps 708 mmHg 93%
    21:00 +7°C° 0.3 mm 2 mps 709 mmHg 95%
    22:00 +7°C° 0 mm 2 mps 709 mmHg 95%
    23:00 +7°C° 0 mm 2 mps 709 mmHg 95%

    Day after tomorrow, 7 June, Sunday

    Time Temperature Precipitation Wind Pressure Humidity
    00:00 +7°C° 0 mm 2 mps 710 mmHg 96%
    01:00 +6°C° 0 mm 2 mps 710 mmHg 96%
    02:00 +6°C° 0 mm 2 mps 710 mmHg 96%
    03:00 +5°C° 0 mm 2 mps 710 mmHg 97%
    04:00 +6°C° 0 mm 2 mps 710 mmHg 95%
    05:00 +7°C° 0 mm 2 mps 710 mmHg 93%
    06:00 +8°C° 0 mm 3 mps 710 mmHg 92%
    07:00 +9°C° 0.1 mm 3 mps 710 mmHg 89%
    08:00 +8°C° 0.1 mm 4 mps 710 mmHg 87%
    09:00 +9°C° 0.1 mm 5 mps 710 mmHg 84%
    10:00 +10°C° 0.4 mm 4 mps 710 mmHg 85%
    11:00 +8°C° 0.4 mm 4 mps 709 mmHg 87%
    12:00 +8°C° 0.4 mm 4 mps 709 mmHg 88%
    13:00 +10°C° 0.1 mm 4 mps 709 mmHg 83%
    14:00 +10°C° 0.1 mm 5 mps 709 mmHg 78%
    15:00 +12°C° 0.1 mm 5 mps 709 mmHg 73%
    16:00 +12°C° 0.3 mm 4 mps 709 mmHg 78%
    17:00 +11°C° 0.3 mm 4 mps 709 mmHg 82%
    18:00 +10°C° 0.3 mm 4 mps 709 mmHg 87%
    19:00 +10°C° 0.4 mm 3 mps 709 mmHg 90%
    20:00 +9°C° 0.4 mm 3 mps 709 mmHg 93%
    21:00 +8°C° 0.4 mm 3 mps 708 mmHg 96%
    22:00 +8°C° 0.5 mm 2 mps 708 mmHg 96%
    23:00 +7°C° 0.5 mm 2 mps 708 mmHg 96%

    8 June, Monday

    Time Temperature Precipitation Wind Pressure Humidity
    00:00 +8°C° 0.5 mm 1 mps 708 mmHg 97%
    01:00 +8°C° 0.3 mm 1 mps 708 mmHg 97%
    02:00 +7°C° 0.3 mm 1 mps 708 mmHg 97%
    03:00 +7°C° 0.3 mm 1 mps 708 mmHg 97%
    04:00 +8°C° 0.1 mm 1 mps 709 mmHg 95%
    05:00 +7°C° 0.1 mm 2 mps 709 mmHg 93%
    06:00 +8°C° 0.1 mm 2 mps 709 mmHg 91%
    07:00 +10°C° 0.2 mm 2 mps 710 mmHg 81%
    08:00 +12°C° 0.2 mm 2 mps 710 mmHg 70%
    09:00 +12°C° 0.2 mm 3 mps 710 mmHg 60%
    10:00 +13°C° 0.1 mm 3 mps 710 mmHg 56%
    11:00 +14°C° 0.1 mm 3 mps 710 mmHg 51%
    12:00 +16°C° 0.1 mm 3 mps 710 mmHg 47%
    13:00 +16°C° 0 mm 3 mps 710 mmHg 46%
    14:00 +16°C° 0 mm 3 mps 710 mmHg 46%
    15:00 +17°C° 0 mm 4 mps 710 mmHg 46%
    16:00 +16°C° 0 mm 3 mps 710 mmHg 49%
    17:00 +16°C° 0 mm 3 mps 710 mmHg 51%
    18:00 +14°C° 0 mm 3 mps 710 mmHg 54%
    19:00 +13°C° 0 mm 3 mps 710 mmHg 58%
    20:00 +11°C° 0 mm 3 mps 710 mmHg 62%
    21:00 +9°C° 0 mm 2 mps 709 mmHg 66%
    22:00 +9°C° 0.1 mm 3 mps 709 mmHg 72%
    23:00 +9°C° 0.1 mm 3 mps 709 mmHg 78%

    9 June, Tuesday

    Time Temperature Precipitation Wind Pressure Humidity
    00:00 +8°C° 0.1 mm 4 mps 709 mmHg 84%
    01:00 +8°C° 1.2 mm 4 mps 708 mmHg 88%
    02:00 +8°C° 1.2 mm 4 mps 707 mmHg 92%
    03:00 +8°C° 1.2 mm 3 mps 707 mmHg 96%
    04:00 +9°C° 1 mm 3 mps 707 mmHg 96%
    05:00 +9°C° 1 mm 3 mps 706 mmHg 96%
    06:00 +9°C° 1 mm 3 mps 706 mmHg 96%
    07:00 +10°C° 0.9 mm 2 mps 706 mmHg 96%
    08:00 +10°C° 0.9 mm 2 mps 706 mmHg 97%
    09:00 +12°C° 0.9 mm 2 mps 706 mmHg 97%
    10:00 +12°C° 1.2 mm 2 mps 706 mmHg 96%
    11:00 +13°C° 1.2 mm 2 mps 706 mmHg 96%
    12:00 +13°C° 1.2 mm 2 mps 706 mmHg 95%
    13:00 +13°C° 0.5 mm 3 mps 706 mmHg 92%
    14:00 +13°C° 0.5 mm 3 mps 706 mmHg 90%
    15:00 +14°C° 0.5 mm 4 mps 706 mmHg 87%
    16:00 +14°C° 0.3 mm 4 mps 706 mmHg 89%
    17:00 +14°C° 0.3 mm 4 mps 706 mmHg 90%
    18:00 +14°C° 0.3 mm 3 mps 706 mmHg 92%
    19:00 +14°C° 2 mm 3 mps 706 mmHg 94%
    20:00 +13°C° 2 mm 3 mps 706 mmHg 96%
    21:00 +13°C° 2 mm 3 mps 706 mmHg 97%
    22:00 +14°C° 1.2 mm 2 mps 705 mmHg 97%
    23:00 +14°C° 1.2 mm 2 mps 705 mmHg 97%

    10 June, Wednesday

    Time Temperature Precipitation Wind Pressure Humidity
    00:00 +13°C° 1.2 mm 2 mps 705 mmHg 97%
    01:00 +13°C° 0.8 mm 2 mps 704 mmHg 97%
    02:00 +13°C° 0.8 mm 2 mps 704 mmHg 97%
    03:00 +13°C° 0.8 mm 2 mps 704 mmHg 97%
    04:00 +13°C° 0.8 mm 1 mps 704 mmHg 97%
    05:00 +13°C° 0.8 mm 1 mps 703 mmHg 98%
    06:00 +13°C° 0.8 mm 1 mps 703 mmHg 98%
    07:00 +13°C° 1.2 mm 1 mps 704 mmHg 98%
    08:00 +13°C° 1.2 mm 2 mps 704 mmHg 97%
    09:00 +12°C° 1.2 mm 2 mps 704 mmHg 97%
    10:00 +10°C° 3.2 mm 2 mps 704 mmHg 97%
    11:00 +11°C° 3.2 mm 1 mps 705 mmHg 97%
    12:00 +10°C° 3.2 mm 1 mps 705 mmHg 97%
    13:00 +11°C° 1.1 mm 1 mps 705 mmHg 93%
    14:00 +12°C° 1.1 mm 1 mps 706 mmHg 90%
    15:00 +13°C° 1.1 mm 1 mps 706 mmHg 86%
    16:00 +13°C° 0 mm 1 mps 706 mmHg 84%
    17:00 +14°C° 0 mm 1 mps 707 mmHg 81%
    18:00 +14°C° 0 mm 1 mps 707 mmHg 78%
    19:00 +13°C° 0 mm 1 mps 707 mmHg 84%
    20:00 +12°C° 0 mm 1 mps 707 mmHg 90%
    21:00 +10°C° 0 mm 1 mps 707 mmHg 96%
    22:00 +10°C° 0 mm 1 mps 707 mmHg 96%
    23:00 +11°C° 0 mm 1 mps 707 mmHg 96%
    Show more